Location: ?????????
(55.6553°N, 38.9075°E)
Time: 06:07:13
(UTC+00:00)

TIMED - Pass Details

Date: 18 October 2019
Orbit: 603 x 604 km, 74.1° (Epoch: 13 November)

Event Time Altitude Azimuth Distance (km) Brightness Sun altitude
Exits shadow 01:17:32 77° 319° (NW) 629 4.4 -23.4°
Drops below altitude 10° 01:21:49 10° 26° (NNE) 1,966 7.7 -22.8°
Sets 01:24:04 0° 28° (NNE) 2,874 8.6 -22.5°
